Regional Weather Roundup
Issued by NWS Wakefield, VA

Home | Current Version | Previous Version | Text Only | Print | Product List | Glossary On
Versions: 1 2 3 4 5 6 7 8 9 10 11 12 13 14 15 16 17 18 19 20 21 22 23 24 25 26 27 28 29 30 31 32 33 34 35 36 37 38 39 40 41 42 43 44 45 46 47 48 49 50
000
ASUS41 KAKQ 141010
RWRAKQ

REGIONAL WEATHER ROUNDUP
NATIONAL WEATHER SERVICE WAKEFIELD VA
600 AM EDT MON JUL 14 2014

Note: "fair" indicates few or no clouds below 12,000 feet with no
significant weather and/or obstructions to visibility. * = Denotes
station may not report precipitation (e.g., rain,snow,etc.),
thunder or fog.

VAZ042-051-052>054-056-141100-
NORTHERN VIRGINIA

CITY           SKY/WX    TMP DP  RH WIND       PRES   REMARKS
WASH NATIONAL  MOCLDY    77  70  79 N3        29.92S
DULLES         MOCLDY    72  70  93 CALM      29.93S
FORT BELVOIR   MOCLDY    73  71  95 CALM      29.92S
QUANTICO       MOCLDY    76  70  82 NW3       29.92S
FREDERICKSBRG* PTCLDY    78  69  73 CALM      29.91S
STAFFORD*      PTCLDY    74  74 100 CALM      29.96S
WARRENTON      MOCLDY    73  73 100 CALM      29.92S
CULPEPER*      MOCLDY   N/A N/A N/A CALM      29.93S HAZE
MANASSAS*        N/A    N/A N/A N/A MISG        N/A
LEESBURG*      MOCLDY    72  72 100 CALM      29.93F
WINCHESTER     CLOUDY    70  70 100 CALM      29.94R
$$

VAZ048-049-060>072-079>083-141100-
CENTRAL AND SOUTH CENTRAL VIRGINIA...AND NORTH CENTRAL NORTH CAROLINA

CITY           SKY/WX    TMP DP  RH WIND       PRES   REMARKS
RICHMOND       CLOUDY    77  72  84 S9        29.94F
CHESTERFIELD*  PTSUNNY   75  64  69 S6        29.97S
HANOVER        PTCLDY    78  69  73 S7        29.95S
TAPPAHANNOCK*  PTCLDY    77  69  76 S6        29.94S
CHARLOTTSVILLE PTCLDY    73  70  90 CALM      29.93S
ORANGE*        MOCLDY    73  68  83 CALM      29.94S
LOUISA*        PTCLDY    75  68  78 S3        29.93S
FARMVILLE*     PTCLDY    75  64  69 SW7       29.94R
SOUTH HILL*    PTCLDY    75  75 100 S7        30.03S
ROANOKE RAPIDS MOSUNNY   70  66  88 S6        30.00S
RALEIGH        MOCLDY    76  70  82 S6        30.01S
$$

VAZ088>098-141100-
SOUTHEAST VIRGINIA

CITY           SKY/WX    TMP DP  RH WIND       PRES   REMARKS
NORFOLK        CLEAR     76  71  85 SW14      29.98F
VIRGINIA BEACH MOCLDY    75  72  90 SW13      29.98S
NORFOLK NAVAL  MOCLDY    77  72  84 S10       29.99F
WEST POINT*    PTCLDY    80  73  78 S7        29.96S
NEWPORT NEWS   CLEAR     80  73  79 SW13      29.98S
LANGLEY AFB    CLEAR     77  77 100 SW8       29.97S
FORT EUSTIS    CLEAR     76  76 100 S8        29.96S
WILLIAMSBURG*  CLEAR     79  73  83 S7        29.98S
FRANKLIN*      PTCLDY    73 N/A N/A S7        29.99S
WAKEFIELD      CLEAR     76  72  87 S6        29.98S
$$

VAZ020-022-025-037-045-141100-
WESTERN AND SOUTHWEST VIRGINIA

CITY           SKY/WX    TMP DP  RH WIND       PRES   REMARKS
STAUNTON*      PTCLDY    72  66  82 CALM      29.98S
HOT SPRINGS VA PTCLDY    65  60  84 W12       30.13R
LYNCHBURG      PTCLDY    71  69  93 SW5       29.99R
DANVILLE       PTCLDY    71  67  87 CALM      29.99S
MARTINSVILLE   MOCLDY    70  68  94 CALM      30.02S
ROANOKE        PTCLDY    77  67  71 CALM      30.00S
BLACKSBURG     PTCLDY    66  66 100 CALM      30.08R FOG
DUBLIN*        PTCLDY    68  68  98 SW3       30.07S
MARION*        PTCLDY    68  68 100 W5        30.11S FOG
HILLSVILLE*    CLEAR     67  65  93 S8        30.09S
RICHLANDS*     MOSUNNY   74  67  79 SW7       30.08S
WISE*          MOCLDY    70  68  94 SW7       30.10R
ABINGDON*      CLOUDY    71  69  91 CALM      30.07S
$$

MDZ021>025-VAZ099-100-141100-
SOUTHERN MARYLAND AND THE DELMARVA PENINSULA

CITY           SKY/WX    TMP DP  RH WIND       PRES   REMARKS
PATUXENT RIVER MOCLDY    78  71  79 SW10      29.91S
BAY BRIDGE APT   N/A     77  73  88 CALM      29.91S
LEONARDTOWN    CLOUDY    77  70  78 SW7       29.93S
DOVER          CLOUDY    74  74 100 SW2       29.90S
GEORGETOWN     CLOUDY    76  73  91 S13       29.93S
EASTON         MOCLDY    78  78  98 CALM      29.95S
CAMBRIDGE      MOCLDY    79  72  78 S7        29.92S
SALISBURY      PTCLDY    78  74  87 S7        29.93S
OCEAN CITY     MOCLDY    78  74  87 SW14      29.94F
WALLOPS ISLAND PTCLDY    75  73  93 SW10      29.96S
ACCOMACK*        N/A     75  72  88 SW8       29.96S
$$

NCZ012>017-030>032-141100-
EASTERN NORTH CAROLINA

CITY           SKY/WX    TMP DP  RH WIND       PRES   REMARKS
ELIZABETH CITY CLEAR     74  72  93 SW7       30.01S
AHOSKIE*       PTCLDY    73  71  93 S5        30.01S
EDENTON*       PTCLDY    75  73  93 SW9       30.02S
CURRITUCK*     CLEAR     76  72  86 SW6       30.01F
KILL DEVIL HLS CLEAR     77  74  91 SW6       30.01S
MANTEO         NOT AVBL
CAPE HATTERAS  CLEAR     79  75  87 W8        30.04S
GOLDSBORO      PTCLDY    73  73  99 S3        30.00F
WASHINGTON     CLEAR     73  72  94 SW5       30.03S
GREENVILLE     CLEAR     73  72  94 SW5       30.04S
NEW BERN       CLEAR     75  71  87 SW3       30.04S
WILMINGTON     CLEAR     75  72  90 W6        30.04S
$$

VAZ048-141100-
ELSEWHERE

CITY           SKY/WX    TMP DP  RH WIND       PRES   REMARKS
HARRISBURG PA  CLOUDY    72  68  87 W3        29.90S
BALTIMORE      MOCLDY    72  71  97 CALM      29.91F
ANNAPOLIS      MOCLDY    77  73  87 NW5       29.91S
ANDREWS AFB    MOCLDY    73  71  96 N2        29.92S
WILMINGTON DE  MOCLDY    73  71  93 CALM      29.92S
PHILADELPHIA   MOCLDY    75  67  76 W3        29.92S
WILDWOOD NJ*   CLOUDY    72  66  83 S8        29.94S
ATLANTIC CITY  CLOUDY    75  70  84 S5        29.93R
HENDERSON NC   CLOUDY    74  70  85 S8        29.99F
GREENSBORO     MOCLDY    75  70  84 SW8       30.01S
ROCKY MOUNT    CLOUDY    74  72  93 S7        30.01F
FAYETTEVILLE   CLEAR     74  72  93 S7        30.02S
CHARLOTTE      MOCLDY    74  69  85 S7        30.03S
$$

VAZ100-141100-
MARINE

STATION/POSITION TIME  TEMP    WIND        PRES    WAVE   SWELL
                       AIR SEA DIR/SP/G            HT/PER HT/PER
                 (UTC) (F)     (DEG/KT/KT) (MB)    (FT/S) (FT/S)
44066 TX TWR #4  1000   73 71  210/ 16/ 19 1013.9R   5/ 6
CAPE MAY NJ      1000   71 73  150/  5/  7 1013.3S
LEWES DE         1000   77 66  210/  6/ 11 1012.6F
15NM E FENWICK I 1000   74 71              1014.0F   3/ 5
OCEAN-CITY-INLET 1000   70 70  220/ 13/ 15 1013.7S
WACHAPREAGUE VA  1000   77 80  210/  9/ 12 1014.5F
THOMAS POINT MD  1000   79 79  220/  9/ 10 1013.4S
GOOSES REEF MD   1000   80     240/ 10/ 12 1013.2R
COVE POINT MD    1000   79     210/  8/ 12 1012.7R
SOLOMONS ISLAND  1000      80                N/A
BISHOPS HEAD MD  1000   80 80  200/ 17/ 20 1013.0S
PINEY POINT MD   1000          230/ 15/ 17   N/A
POTOMAC MD       1000   79     230/ 14/ 17 1012.4S
CAMBRIDGE MD     1000   79 81  180/  3/  7 1012.5S
LEWISETTA VA     1000   78 80  220/ 13/ 15 1012.9S
RAPPAHANNOCK LGT 1000          200/ 18/ 19 1014.8S
STINGRAY PT      1000   79     210/ 14/ 16 1013.4S
YORK RVR RNG VA  1000   78     230/ 15/ 20 1013.7F
YORKTOWN VA      1000   77 80  210/ 14/ 17 1014.2S
JAMESTOWN VA     1000   75     240/ 12/ 16   N/A
DOMINION TERM VA 1000   77     210/ 14/ 17 1015.0F
KIPTOPEKE VA     1000      78  220/ 12/ 14   N/A
CHES BAY BRIDGE  1000   77 77  200/ 15/ 19 1014.4S
CAPE HENRY VA    1000   76     210/ 10/ 15 1014.0S
WILLOUBY STN VA  1000   83     220/ 17/ 19 1014.2F
S CRANEY ISL VA  1000          200/ 10/ 13 1015.3S
CAPE HENRY BUOY  1000      73                N/A     2/ 8
1ST LANDING BUOY 1000   77     220/ 14/ 17 1015.0R
CAPE CHARLES BUO 1000      69                N/A     2/ 8
OFFSHORE WE BUOY 1000      76                N/A     3/ 8
64NM E OF VA BCH 1000   78 76  220/ 12/ 16 1015.9F   2/ 8   2/ 8
DUCK PIER NC     1000   78 64  230/ 13/ 16 1015.7R
44056 DUCK FRF   1000                        N/A     2/ 8
OREGON INLET NC  1000   79 83  230/ 13/ 16 1016.5F
HATTERAS NC      1000   78 83  230/  7/  9 1017.4R
DIAMOND SHLS NC  1000          VRB 14/ 17  1017.0F   4/ 4   2/ 8
CAPE LOOKOUT NC  0900   80     240/  7/  9 1017.1S
$$



USA.gov is the U.S. government's official web portal to all federal, state and local government web resources and services.